Date,TemperatureHighF,TemperatureAvgF,TemperatureLowF,DewpointHighF,DewpointAvgF,DewpointLowF,HumidityHigh,HumidityAvg,HumidityLow,PressureMaxIn,PressureMinIn,WindSpeedMaxMPH,WindSpeedAvgMPH,GustSpeedMaxMPH,PrecipitationSumIn
2013-2-1,9.7,0.5,-7.3,8.0,-3.9,-11.0,93,82,70,30.40,30.13,10,3,14,0.00
2013-2-2,17.4,12.8,7.8,16.0,10.1,6.0,96,89,76,30.14,30.02,8,2,16,0.00
2013-2-3,19.7,16.9,11.1,18.0,13.5,10.0,97,87,73,30.08,29.95,15,4,20,0.00
2013-2-4,21.5,17.3,5.5,20.0,14.7,4.0,97,90,78,29.99,29.84,14,3,18,0.00
2013-2-5,32.2,22.8,9.4,29.0,20.4,8.0,96,90,81,30.09,29.81,11,4,16,0.00
2013-2-6,37.6,26.0,6.1,34.0,22.8,5.0,99,88,72,30.18,30.01,9,2,14,0.07
2013-2-7,36.9,34.1,28.7,36.0,33.4,28.0,100,97,89,30.07,29.87,11,2,16,0.36
2013-2-8,29.9,24.7,16.5,27.0,21.7,15.0,97,88,76,30.36,30.07,10,3,16,0.00
2013-2-9,32.2,26.9,19.2,29.0,24.9,18.0,96,92,85,30.37,30.01,10,4,17,0.00
2013-2-10,46.7,38.1,28.8,46.0,37.2,28.0,100,97,82,30.01,29.35,17,6,36,0.35
2013-2-11,36.2,30.0,24.3,33.0,25.6,20.0,93,83,78,30.05,29.44,30,14,37,0.00
2013-2-12,37.0,28.1,22.9,28.0,23.6,20.0,93,83,70,30.11,29.86,13,4,18,0.00
2013-2-13,40.2,32.3,20.0,34.0,29.0,20.0,99,88,76,29.86,29.64,9,2,12,0.00
2013-2-14,40.0,36.0,29.5,35.0,30.7,24.0,90,81,64,30.01,29.59,16,6,25,0.00
2013-2-15,29.4,22.5,14.6,24.0,13.3,8.0,79,68,51,30.25,30.01,12,6,23,0.00
2013-2-16,21.8,15.1,9.3,11.0,8.9,7.0,92,77,61,30.24,30.16,9,3,17,0.00
2013-2-17,33.7,22.7,8.7,25.0,15.4,5.0,89,74,61,30.20,29.85,14,3,22,0.00
2013-2-18,52.0,35.4,17.5,42.0,30.3,13.0,98,82,66,29.84,29.47,14,6,30,0.07
2013-2-19,17.3,10.2,4.6,13.0,3.0,-99.9,89,78,70,30.31,29.68,19,-13,29,0.00
2013-2-20,23.6,11.9,3.5,14.0,6.1,-1.0,92,78,65,30.43,30.31,8,3,14,0.00
2013-2-21,27.0,19.4,8.5,26.0,16.9,7.0,98,90,82,30.41,29.93,15,5,24,0.00
2013-2-22,30.9,27.1,24.2,28.0,25.5,22.0,98,94,88,29.93,29.79,13,5,17,0.00
2013-2-23,27.5,23.1,14.2,22.0,19.1,13.0,93,85,71,29.98,29.89,11,5,15,0.00
2013-2-24,39.4,22.3,4.6,26.0,16.4,3.0,95,80,56,30.13,29.98,4,1,7,0.05
2013-2-25,41.1,31.5,19.3,32.0,26.3,18.0,96,82,67,30.15,29.93,9,2,13,0.01
2013-2-26,35.7,33.0,29.6,31.0,29.2,28.0,99,86,75,29.94,29.60,19,8,32,0.00
2013-2-27,33.0,31.3,29.0,33.0,30.8,28.0,99,98,94,29.81,29.63,12,5,15,0.04
2013-2-28,35.7,32.9,30.1,32.0,29.7,27.0,98,88,81,30.10,29.81,11,4,14,0.04